sat.trackr.live / text

‹ back to catalog

COSMOS 2496 (RODNIK-S *)

NORAD 39761 · 2014-028A

PAYLOAD ACTIVE UNKNOWN

§ Identity

Operator
Country
CIS
Launch date
2014-05-23
Launch site
PLMSC
Launch vehicle
Mass (kg)
RCS (m²)
1.69

External: N2YO · Heavens-Above · Gunter

§ Orbital elements

Epoch: 2026-09-12T04:50:18.233952Z

Period
115.86 min
Inclination
82.4424°
Eccentricity
0.0019241
Mean motion
12.42881257 rev/d
Perigee alt
1,479.3 km
Apogee alt
1,509.6 km
Semi-major
7,872.5 km
B*
-5.3032e-5
RAAN
54.2076°
Arg perigee
249.2269°
Mean anomaly
110.6749°
Rev number
55,832

§ Raw data

COSMOS 2496 (RODNIK-S *)1 39761U 14028A   26255.20159993  .00000002  00000+0 -53032-4 0  99982 39761  82.4424  54.2076 0019241 249.2269 110.6749 12.42881257558328

JSON: /api/v1/satellites/39761 · /tle

For live sub-satellite position, see the globe view (requires WebGL).

§ Visibility from observer

Set your observer location to see the next 7 days of passes ≥ 10°. The values pass through the URL so the page stays shareable.

No JS? Fill the form by hand. The geolocation button needs JavaScript.

§ Radio — SatNOGS DB

ModeDescriptionDownlinkUplink
FM UHF Unknown 387.175 MHz
FM UHF Unknown 388.187 MHz
UHF Unknown 388.687 MHz

3 transmitters · refreshed weekly from db.satnogs.org